Terminal Aerodrome Forecast
Issued by NWS Columbia, SC

Home | Current Version | Previous Version | Text Only | Print | Product List | Glossary On
Versions: 1 2 3 4 5 6 7 8 9 10 11 12 13 14 15 16 17 18 19 20 21 22 23 24 25 26 27 28 29 30 31 32 33 34 35 36 37 38 39 40 41 42
532
FTUS42 KCAE 240152 AAA
TAFAGS
TAF AMD
KAGS 240152Z 2402/2424 VRB04KT P6SM BKN060
     FM240500 VRB03KT P6SM SCT050
     FM240900 VRB03KT 4SM BR SCT010 BKN035
     FM241400 11004KT P6SM SCT030
     FM241700 12006KT P6SM SCT045 SCT150=

USA.gov is the U.S. government's official web portal to all federal, state and local government web resources and services.